Voltar ao catálogo

STARLINK-31608

AtivoComunicaçõesVLEO
NORAD 59397·PAYLOAD·🇺🇸 United States

Lançado Apr 2, 2024 de Vandenberg Space Force Base

Loading…

Próximas Passagens (próximas 24 horas)

TLE

AtualizadoSource: CelesTrak SupGP

Época: Sep 15, 2026, 02:48 UTC

1 59397C 24062X   26258.11715278 -.00010950  00000+0 -32356-3 0  2588
2 59397  53.1578  93.1418 0000745  77.6647 186.3693 15.34393602    16

Acompanhe STARLINK-31608 em tempo real com AllMySat

Download on the App Store